Location: Arborea
(39.7744°N, 8.5819°E)
Time: 00:59:17
(UTC+00:00)

PAYLOAD B - Pass Details

Date: 24 October 2021
Orbit: 849 x 871 km, 99.1° (Epoch: 06 December)

Event Time Altitude Azimuth Distance (km) Brightness Sun altitude
Rises 17:01:39 0° 158° (SSE) 3,409 7.2 -6.1°
Reaches altitude 10° 17:04:00 10° 157° (SSE) 2,480 6.5 -6.5°
Maximum altitude 17:09:29 73° 74° (ENE) 901 4.2 -7.6°
Drops below altitude 10° 17:15:02 10° 350° (N) 2,510 6.7 -8.6°
Sets 17:17:26 0° 349° (NNW) 3,455 7.4 -9.1°
